Location: Unspecified
(54.1780°N, 0.0000°E)
Time: 17:35:49
(UTC+00:00)

Transit 2A - Pass Details

Date: 24 June 2019
Orbit: 600 x 958 km, 66.7° (Epoch: 19 October)

Event Time Altitude Azimuth Distance (km) Brightness Sun altitude
Rises 06:14:43 0° 313° (NW) 3,560 9.1 20.6°
Reaches altitude 10° 06:17:33 10° 321° (NW) 2,572 8.5 21.0°
Maximum altitude 06:23:02 37° 28° (NNE) 1,296 8.0 21.8°
Drops below altitude 10° 06:28:03 10° 95° (E) 2,347 10.3 22.5°
Sets 06:30:31 0° 104° (ESE) 3,212 10.4 22.8°
